• In Deutschland
  • Länderverzeichnis
  • Für 7 Tage
  • Wassertemperatur
  • Satellitenkarten
  • Wetterkarte
  • Widgets
  • user-avatar
    Anmelden

    Stündliche Wetter Bad Mergentheim

    Heute, 20 Oktober, Freitag

    Zeit Temperatur Niederschläge Wind Luftdruck Luftfeuchtigkeit
    00:00 +14°C° 0 mm 1 m/S 740 mmHg 78%
    01:00 +13°C° 0 mm 1 m/S 741 mmHg 78%
    02:00 +13°C° 0 mm 1 m/S 741 mmHg 77%
    03:00 +13°C° 0 mm 1 m/S 741 mmHg 76%
    04:00 +14°C° 0 mm 1 m/S 741 mmHg 75%
    05:00 +13°C° 0 mm 1 m/S 741 mmHg 77%
    06:00 +13°C° 0 mm 2 m/S 741 mmHg 78%
    07:00 +12°C° 0 mm 2 m/S 741 mmHg 80%
    08:00 +14°C° 0 mm 2 m/S 741 mmHg 74%
    09:00 +15°C° 0 mm 2 m/S 742 mmHg 69%
    10:00 +17°C° 0 mm 3 m/S 742 mmHg 63%
    11:00 +17°C° 0,2 mm 3 m/S 742 mmHg 66%
    12:00 +17°C° 0,2 mm 3 m/S 742 mmHg 69%
    13:00 +17°C° 0,2 mm 3 m/S 742 mmHg 72%
    14:00 +17°C° 0,1 mm 3 m/S 742 mmHg 74%
    15:00 +17°C° 0,1 mm 3 m/S 742 mmHg 75%
    16:00 +17°C° 0,1 mm 3 m/S 742 mmHg 77%
    17:00 +16°C° 0 mm 3 m/S 742 mmHg 81%
    18:00 +14°C° 0 mm 3 m/S 743 mmHg 86%
    19:00 +14°C° 0 mm 2 m/S 743 mmHg 91%
    20:00 +13°C° 0 mm 2 m/S 743 mmHg 92%
    21:00 +13°C° 0 mm 2 m/S 743 mmHg 93%
    22:00 +12°C° 0 mm 2 m/S 744 mmHg 94%
    23:00 +12°C° 0 mm 2 m/S 744 mmHg 94%

    Morgen, 21 Oktober, Samstag

    Zeit Temperatur Niederschläge Wind Luftdruck Luftfeuchtigkeit
    00:00 +12°C° 0 mm 2 m/S 744 mmHg 94%
    01:00 +12°C° 0 mm 2 m/S 744 mmHg 94%
    02:00 +13°C° 0 mm 2 m/S 743 mmHg 93%
    03:00 +13°C° 0 mm 2 m/S 743 mmHg 93%
    04:00 +13°C° 0 mm 2 m/S 743 mmHg 93%
    05:00 +13°C° 0 mm 2 m/S 743 mmHg 91%
    06:00 +13°C° 0 mm 2 m/S 743 mmHg 89%
    07:00 +14°C° 0 mm 2 m/S 742 mmHg 88%
    08:00 +14°C° 0 mm 3 m/S 742 mmHg 83%
    09:00 +16°C° 0 mm 3 m/S 742 mmHg 79%
    10:00 +17°C° 0 mm 4 m/S 742 mmHg 75%
    11:00 +18°C° 0 mm 4 m/S 742 mmHg 70%
    12:00 +19°C° 0 mm 4 m/S 742 mmHg 66%
    13:00 +20°C° 0 mm 4 m/S 742 mmHg 61%
    14:00 +20°C° 0,1 mm 4 m/S 742 mmHg 66%
    15:00 +19°C° 0,1 mm 4 m/S 742 mmHg 70%
    16:00 +19°C° 0,1 mm 3 m/S 742 mmHg 74%
    17:00 +17°C° 0,3 mm 3 m/S 742 mmHg 80%
    18:00 +16°C° 0,3 mm 3 m/S 742 mmHg 86%
    19:00 +14°C° 0,3 mm 3 m/S 742 mmHg 92%
    20:00 +13°C° 0,9 mm 3 m/S 742 mmHg 91%
    21:00 +13°C° 0,9 mm 4 m/S 743 mmHg 90%
    22:00 +12°C° 0,9 mm 4 m/S 743 mmHg 89%
    23:00 +12°C° 0,2 mm 4 m/S 744 mmHg 90%

    übermorgen, 22 Oktober, Sonntag

    Zeit Temperatur Niederschläge Wind Luftdruck Luftfeuchtigkeit
    00:00 +11°C° 0,2 mm 4 m/S 744 mmHg 90%
    01:00 +11°C° 0,2 mm 4 m/S 744 mmHg 90%
    02:00 +10°C° 0,1 mm 4 m/S 744 mmHg 90%
    03:00 +10°C° 0,1 mm 4 m/S 744 mmHg 91%
    04:00 +8°C° 0,1 mm 4 m/S 744 mmHg 91%
    05:00 +9°C° 0 mm 3 m/S 744 mmHg 92%
    06:00 +9°C° 0 mm 3 m/S 744 mmHg 92%
    07:00 +8°C° 0 mm 3 m/S 744 mmHg 92%
    08:00 +8°C° 0 mm 4 m/S 744 mmHg 88%
    09:00 +8°C° 0 mm 5 m/S 744 mmHg 83%
    10:00 +9°C° 0 mm 5 m/S 744 mmHg 78%
    11:00 +9°C° 0,1 mm 5 m/S 744 mmHg 77%
    12:00 +9°C° 0,1 mm 5 m/S 743 mmHg 75%
    13:00 +10°C° 0,1 mm 5 m/S 743 mmHg 73%
    14:00 +11°C° 0,2 mm 4 m/S 743 mmHg 73%
    15:00 +11°C° 0,2 mm 4 m/S 743 mmHg 73%
    16:00 +11°C° 0,2 mm 4 m/S 743 mmHg 72%
    17:00 +10°C° 0,1 mm 3 m/S 743 mmHg 77%
    18:00 +9°C° 0,1 mm 3 m/S 743 mmHg 81%
    19:00 +8°C° 0,1 mm 3 m/S 744 mmHg 86%
    20:00 +8°C° 0 mm 3 m/S 744 mmHg 87%
    21:00 +7°C° 0 mm 3 m/S 744 mmHg 88%
    22:00 +6°C° 0 mm 4 m/S 744 mmHg 89%
    23:00 +6°C° 0 mm 4 m/S 744 mmHg 90%

    23 Oktober, Montag

    Zeit Temperatur Niederschläge Wind Luftdruck Luftfeuchtigkeit
    00:00 +6°C° 0 mm 4 m/S 744 mmHg 91%
    01:00 +6°C° 0 mm 4 m/S 744 mmHg 92%
    02:00 +6°C° 0,1 mm 4 m/S 744 mmHg 92%
    03:00 +6°C° 0,1 mm 4 m/S 744 mmHg 92%
    04:00 +6°C° 0,1 mm 4 m/S 744 mmHg 92%
    05:00 +7°C° 0,2 mm 3 m/S 744 mmHg 92%
    06:00 +8°C° 0,2 mm 3 m/S 744 mmHg 93%
    07:00 +8°C° 0,2 mm 3 m/S 744 mmHg 93%
    08:00 +8°C° 0,4 mm 3 m/S 744 mmHg 92%
    09:00 +8°C° 0,4 mm 4 m/S 744 mmHg 91%
    10:00 +8°C° 0,4 mm 4 m/S 745 mmHg 90%
    11:00 +10°C° 0,1 mm 4 m/S 745 mmHg 88%
    12:00 +9°C° 0,1 mm 5 m/S 745 mmHg 86%
    13:00 +9°C° 0,1 mm 5 m/S 745 mmHg 84%
    14:00 +10°C° 0,1 mm 5 m/S 745 mmHg 83%
    15:00 +11°C° 0,1 mm 4 m/S 745 mmHg 83%
    16:00 +11°C° 0,1 mm 4 m/S 745 mmHg 82%
    17:00 +10°C° 0,1 mm 4 m/S 745 mmHg 86%
    18:00 +10°C° 0,1 mm 3 m/S 745 mmHg 89%
    19:00 +9°C° 0,1 mm 3 m/S 746 mmHg 93%
    20:00 +9°C° 0,4 mm 3 m/S 746 mmHg 94%
    21:00 +9°C° 0,4 mm 3 m/S 746 mmHg 95%
    22:00 +9°C° 0,4 mm 3 m/S 746 mmHg 96%
    23:00 +9°C° 0,5 mm 3 m/S 746 mmHg 95%

    24 Oktober, Dienstag

    Zeit Temperatur Niederschläge Wind Luftdruck Luftfeuchtigkeit
    00:00 +10°C° 0,5 mm 3 m/S 746 mmHg 95%
    01:00 +10°C° 0,5 mm 3 m/S 746 mmHg 95%
    02:00 +10°C° 0,3 mm 2 m/S 746 mmHg 95%
    03:00 +10°C° 0,3 mm 2 m/S 745 mmHg 95%
    04:00 +10°C° 0,3 mm 2 m/S 745 mmHg 95%
    05:00 +10°C° 0,2 mm 2 m/S 746 mmHg 96%
    06:00 +10°C° 0,2 mm 2 m/S 746 mmHg 96%
    07:00 +10°C° 0,2 mm 2 m/S 746 mmHg 96%
    08:00 +10°C° 0,1 mm 2 m/S 746 mmHg 95%
    09:00 +12°C° 0,1 mm 2 m/S 747 mmHg 94%
    10:00 +12°C° 0,1 mm 2 m/S 747 mmHg 93%
    11:00 +12°C° 0,4 mm 2 m/S 747 mmHg 93%
    12:00 +13°C° 0,4 mm 2 m/S 747 mmHg 93%
    13:00 +13°C° 0,4 mm 2 m/S 747 mmHg 93%
    14:00 +13°C° 0 mm 2 m/S 747 mmHg 93%
    15:00 +14°C° 0 mm 2 m/S 747 mmHg 93%
    16:00 +14°C° 0 mm 2 m/S 747 mmHg 93%
    17:00 +14°C° 0,1 mm 2 m/S 748 mmHg 94%
    18:00 +14°C° 0,1 mm 1 m/S 748 mmHg 95%
    19:00 +13°C° 0,1 mm 1 m/S 748 mmHg 97%
    20:00 +14°C° 0,1 mm 1 m/S 748 mmHg 97%
    21:00 +14°C° 0,1 mm 2 m/S 749 mmHg 97%
    22:00 +14°C° 0,1 mm 2 m/S 749 mmHg 98%
    23:00 +13°C° 0 mm 2 m/S 749 mmHg 98%

    25 Oktober, Mittwoch

    Zeit Temperatur Niederschläge Wind Luftdruck Luftfeuchtigkeit
    00:00 +13°C° 0 mm 1 m/S 749 mmHg 98%
    01:00 +13°C° 0 mm 1 m/S 749 mmHg 98%
    02:00 +13°C° 0 mm 1 m/S 749 mmHg 98%
    03:00 +13°C° 0 mm 1 m/S 749 mmHg 98%
    04:00 +13°C° 0 mm 1 m/S 749 mmHg 98%
    05:00 +13°C° 0 mm 1 m/S 749 mmHg 97%
    06:00 +13°C° 0 mm 1 m/S 749 mmHg 97%
    07:00 +13°C° 0 mm 1 m/S 749 mmHg 97%
    08:00 +14°C° 0 mm 2 m/S 750 mmHg 94%
    09:00 +15°C° 0 mm 2 m/S 750 mmHg 91%
    10:00 +16°C° 0 mm 2 m/S 750 mmHg 88%
    11:00 +17°C° 0 mm 2 m/S 750 mmHg 85%
    12:00 +19°C° 0 mm 1 m/S 750 mmHg 81%
    13:00 +20°C° 0 mm 1 m/S 750 mmHg 78%
    14:00 +20°C° 0 mm 1 m/S 749 mmHg 79%
    15:00 +20°C° 0 mm 1 m/S 749 mmHg 81%
    16:00 +17°C° 0 mm 0 m/S 749 mmHg 83%
    17:00 +16°C° 0 mm 0 m/S 750 mmHg 86%
    18:00 +16°C° 0 mm 1 m/S 750 mmHg 89%
    19:00 +15°C° 0 mm 1 m/S 750 mmHg 92%
    20:00 +15°C° 0 mm 1 m/S 750 mmHg 92%
    21:00 +14°C° 0 mm 1 m/S 750 mmHg 93%
    22:00 +14°C° 0 mm 1 m/S 751 mmHg 94%
    23:00 +13°C° 0 mm 1 m/S 751 mmHg 94%
    Mehr zeigen